#timestamp,LO_Frequency,Hit,StdDev 
1551528015.3,286047004.0,N
1551528035.1,286047003.7,N
1551528055.9,286047002.1,N
1551528075.7,286047004.0,N
1551528095.6,286046999.9,N
1551528115.4,286047004.4,N
1551528135.2,286047003.1,N
1551528155.1,286047003.2,N
1551528156.0,286047003.2,N
1551528175.8,286047002.0,N
1551528195.6,286047003.9,N
1551528215.5,286047005.2,N
1551528235.3,286047004.8,N
1551528255.2,286047003.6,N
1551528275.9,286047002.5,N
1551528295.7,286046998.3,N
1551528315.6,286047000.5,N
1551528335.4,286047002.2,N
1551528355.2,286047000.4,N
1551528375.1,286047002.5,N
1551528376.0,286047002.5,N
1551528395.8,286047004.3,N
1551528415.7,286047002.5,N
1551528435.5,286047001.5,N
1551528455.3,286047001.8,N
1551528475.2,286047003.2,N
1551528495.0,286047004.2,N
1551528495.9,286047004.2,N
1551528515.8,286047002.5,N
1551528535.6,286047003.8,N
1551528555.4,286047001.8,N
1551528575.3,286047001.3,N
1551528595.1,286047003.8,N
1551528615.8,286047001.9,N
1551528635.7,286047000.3,N
1551528655.5,286046999.9,N
1551528675.4,286047004.1,N
1551528695.2,286047002.3,N
1551528715.0,286047002.8,N
1551528715.9,286047002.8,N
1551528735.8,286046999.7,N
1551528755.6,286047001.0,N
1551528775.4,286046999.0,N
1551528795.3,286046998.4,N
1551528815.1,286046999.1,N
1551528835.9,286046998.4,N
1551528855.7,286046997.0,N
1551528875.5,286047000.6,N
1551528895.4,286047000.5,N
1551528915.2,286047000.2,N
1551528935.1,286047000.5,N
1551528936.0,286047000.5,N
1551528955.8,286046998.2,N
1551528975.6,286046997.8,N
1551528995.5,286046997.2,N
1551529015.3,286046997.1,N
1551529035.1,286046997.1,N
1551529055.9,286046996.7,N
1551529075.7,286046995.1,N
1551529095.6,286046997.0,N
1551529115.4,286046999.6,N
1551529135.2,286046995.0,N
1551529155.1,286046995.6,N
1551529156.0,286046995.6,N
1551529175.8,286046993.5,N
1551529195.6,286046995.1,N
1551529215.5,286046995.7,N
1551529235.3,286046992.0,Y
1551529255.2,286046997.5,P
1551529275.0,286046995.7,P
1551529275.9,286046995.7,P
1551529295.7,286046996.5,Y
1551529315.6,286047001.6,P
1551529335.4,286047003.1,N
1551529355.3,286047003.9,N
1551529375.1,286047003.7,N
1551529376.0,286047003.7,N
1551529395.8,286047003.6,N
1551529415.7,286046999.8,N
1551529435.5,286047002.2,N
1551529455.4,286047002.6,N
1551529475.2,286047002.2,N
1551529495.0,286047003.9,N
1551529495.9,286047003.9,N
1551529515.8,286047003.2,N
1551529535.6,286047002.6,N
1551529555.4,286047002.0,N
1551529575.3,286047002.0,N
1551529595.1,286047001.5,N
1551529615.9,286047003.6,N
1551529635.7,286047002.2,N
1551529655.5,286047002.3,N
1551529675.4,286047003.5,N
1551529695.2,286047005.2,Y
1551529715.1,286047000.9,P
1551529716.0,286047000.9,N
1551529735.8,286047000.7,N
1551529755.6,286047001.0,N
1551529775.5,286047000.2,N
1551529795.3,286046999.9,N
1551529815.1,286047002.2,N
1551529835.9,286047000.4,N
1551529855.7,286047000.7,N
1551529875.6,286046999.0,N
1551529895.4,286046998.6,N
1551529915.2,286046999.4,N
1551529935.1,286047000.0,N
1551529936.0,286047000.0,N
1551529955.8,286047001.2,N
1551529975.6,286046998.2,N
1551529995.5,286047000.2,N
1551530015.3,286047000.0,N
1551530035.2,286046998.1,N
1551530055.9,286047001.1,N
1551530075.7,286046998.5,N
1551530095.6,286046997.1,N
1551530115.4,286046999.2,N
1551530135.3,286046998.9,N
1551530155.1,286046999.6,N
1551530156.0,286046999.6,N
1551530175.8,286046998.9,N
1551530195.7,286046999.4,N
1551530215.5,286046999.4,N
1551530235.3,286046998.7,N
1551530255.2,286047000.8,N
1551530275.0,286046998.3,N
1551530275.9,286046998.3,N
1551530295.8,286047000.7,N
1551530315.6,286047000.9,N
1551530335.4,286047002.4,N
1551530355.3,286047000.0,N
1551530375.1,286047000.3,N
1551530395.8,286047004.4,Y
1551530415.7,286047000.6,P
1551530435.5,286046999.3,N
1551530455.4,286046998.6,N
1551530475.2,286046999.6,N
1551530495.0,286046999.0,N
1551530495.9,286046999.0,N
1551530515.8,286046999.2,N
1551530535.6,286047002.7,Y
1551530555.5,286047000.9,P
1551530575.3,286047000.7,N
1551530595.1,286046998.8,N
1551530615.9,286047002.7,Y
1551530635.7,286046998.5,P
1551530655.5,286047000.3,N
1551530675.4,286047004.3,P
1551530695.2,286047002.1,N
1551530715.1,286047001.9,N
1551530716.0,286047001.9,N
1551530735.8,286047000.3,N
1551530755.6,286047000.3,N
1551530775.5,286047002.2,N
1551530795.3,286047000.5,N
1551530815.2,286047001.1,N
1551530835.9,286047001.1,N
1551530855.7,286047001.6,N
1551530875.6,286047002.6,N
1551530895.4,286047002.0,N
1551530915.2,286047001.5,N
1551530935.1,286047002.6,N
1551530936.0,286047002.6,N
1551530955.8,286047001.5,N
1551530975.7,286047003.8,Y
1551530995.5,286046998.6,P
1551531015.3,286047000.8,N
1551531035.2,286046998.1,N
1551531055.0,286047002.0,N
1551531055.9,286047002.0,N
1551531075.7,286047000.5,N
1551531095.6,286046999.9,N
1551531115.4,286047000.8,N
1551531135.3,286046998.8,N
1551531155.1,286046998.1,N
1551531175.8,286047000.6,N
1551531195.7,286046999.7,N
1551531215.5,286047001.2,N
1551531235.4,286047004.2,Y
1551531255.2,286047004.2,P
1551531275.0,286047003.4,N
1551531275.9,286047003.4,N
1551531295.8,286047003.6,N
1551531315.6,286047001.9,N
1551531335.4,286047002.1,N
1551531355.3,286047000.3,N
1551531375.1,286047001.6,N
1551531395.9,286047000.1,N
1551531415.7,286047002.2,N
1551531435.5,286047000.2,N
1551531455.4,286047001.6,N
1551531475.2,286047002.3,N
1551531495.0,286047000.5,N
1551531495.9,286047000.5,N
1551531515.8,286047000.0,N
1551531535.6,286046999.9,N
1551531555.5,286047001.9,N
1551531575.3,286047002.3,N
1551531595.1,286047004.3,Y
